This demonstration page uses our WeatherBlox Daily Observations layout. Learn more.

Left ArrowRight Arrow

Hourly Observations for December 14, 2018

Temp ( °F °C ) Dew Point ( °F °C ) Humidity (%) Winds ( mph kmh ) Pressure ( in mb ) Visibility ( mi km ) Precip ( " mm )
12:57 am 00:57 Clear 22 -5.6 19 -7.2 89 89 NW 7 11 30.32 1027 10 16 0.00 0.00
1:57 am 01:57 Clear 23 -5 19 -7.2 85 85 NW 6 9 30.30 1026 10 16 0.00 0.00
2:57 am 02:57 Clear 22 -5.6 19 -7.2 89 89 W 5 7 30.30 1026 10 16 0.00 0.00
3:57 am 03:57 Clear 22 -5.6 17 -8.3 82 82 W 7 11 30.32 1027 10 16 0.00 0.00
4:57 am 04:57 Clear 21 -6.1 16 -8.9 81 81 Calm 30.31 1027 10 16 0.00 0.00
5:57 am 05:57 Clear 19 -7.2 16 -8.9 88 88 WNW 6 9 30.32 1027 10 16 0.00 0.00
6:57 am 06:57 Clear 22 -5.6 17 -8.3 82 82 WNW 6 9 30.33 1027 10 16 0.00 0.00
7:57 am 07:57 Sunny 26 -3.3 18 -7.8 71 71 W 6 9 30.33 1027 10 16 0.00 0.00
8:57 am 08:57 Sunny 26 -3.3 20 -6.7 78 78 WNW 7 11 30.33 1027 10 16 0.00 0.00
9:57 am 09:57 Sunny 30 -1.1 22 -5.6 72 72 WNW 9 15 30.34 1028 10 16 0.00 0.00
10:57 am 10:57 Sunny 33 0.6 23 -5 66 66 W 6 9 30.34 1028 10 16 0.00 0.00
11:57 am 11:57 Sunny 38 3.3 25 -3.9 60 60 WNW 7 11 30.32 1027 10 16 0.00 0.00
12:57 pm 12:57 Sunny 42 5.6 26 -3.3 53 53 WNW 6 9 30.30 1026 10 16 0.00 0.00
1:57 pm 13:57 Sunny 44 6.7 27 -2.8 51 51 W 5 7 30.28 1026 10 16 0.00 0.00
2:57 pm 14:57 Sunny 45 7.2 28 -2.2 52 52 NW 7 11 30.28 1025 10 16 0.00 0.00
3:57 pm 15:57 Sunny 44 6.7 29 -1.7 55 55 WNW 6 9 30.29 1026 10 16 0.00 0.00
4:57 pm 16:57 Sunny 41 5 30 -1.1 65 65 W 3 6 30.29 1026 10 16 0.00 0.00
5:57 pm 17:57 Clear 39 3.9 30 -1.1 70 70 WSW 5 7 30.30 1026 10 16 0.00 0.00
6:57 pm 18:57 Clear 34 1.1 29 -1.7 82 82 Calm 30.29 1026 10 16 0.00 0.00
7:57 pm 19:57 Clear 32 0 29 -1.7 88 88 Calm 30.28 1025 10 16 0.00 0.00
8:57 pm 20:57 Clear 30 -1.1 27 -2.8 88 88 Calm 30.28 1025 10 16 0.00 0.00
9:57 pm 21:57 Clear 27 -2.8 24 -4.4 89 89 WNW 3 6 30.27 1025 10 16 0.00 0.00
10:57 pm 22:57 Clear 26 -3.3 24 -4.4 92 92 Calm 30.26 1025 10 16 0.00 0.00
11:57 pm 23:57 Clear 25 -3.9 23 -5 92 92 WNW 3 6 30.24 1024 10 16 0.00 0.00

Powered by AerisWeather